Weather History for KHIE - March, 2012

Change the Weather History Date:

Saturday, March 17, 2012

  Actual Average Record
Temperature  
Mean Temperature 43 °F -  
Max Temperature 54 °F 33 °F 61 °F (2003)
Min Temperature 30 °F 12 °F -15 °F (2014)
Degree Days  
Heating Degree Days 22    
Moisture  
Dew Point 35 °F    
Average Humidity 93    
Maximum Humidity 100    
Minimum Humidity 59    
Precipitation  
Precipitation 0.00 in - - ()
Sea Level Pressure  
Sea Level Pressure 30.28 in    
Wind  
Wind Speed 0 mph (WNW)    
Max Wind Speed 6 mph    
Max Gust Speed -    
Visibility 5 miles    
Events      
Averages and records for this station are not official NWS values.
T = Trace of Precipitation, MM = Missing Value Source: NWS Daily Summary

Daily Weather History Graph

Daily Weather History Graph

Search for Another Location

Airport or City:

Trip Planner

Search our weather history database for the weather conditions in past years. The results will help you decide how hot, cold, wet, or windy it might be!

Date:

Astronomy

Mar. 17, 2012 Rise Set
Actual Time 6:54 AM EDT 6:55 PM EDT
Civil Twilight 6:25 AM EDT 7:24 PM EDT
Nautical Twilight 5:51 AM EDT 7:58 PM EDT
Astronomical Twilight 5:16 AM EDT 8:32 PM EDT
Moon 4:03 AM EDT (3/17) 2:06 PM EDT (3/17)
Length of Visible Light 12h 59m
Length of Day
12h 01m
Waning Crescent, 23% of the Moon is Illuminated
Mar 17
Waning Crescent
Mar 22
New
Mar 30
First Quarter
Apr 6
Full
Apr 13
Last Quarter

Hourly Weather History & Observations

Time (EDT) Temp. Windchill Dew Point Humidity Pressure Visibility Wind Dir Wind Speed Gust Speed Precip Events Conditions
12:06 AM 35.6 °F - 35.6 °F 100% 30.21 in 2.5 mi Calm Calm - N/A   Overcast
12:29 AM 35.6 °F - 35.6 °F 100% 30.19 in 3.0 mi Calm Calm - N/A   Overcast
12:52 AM 35.1 °F - 35.1 °F 100% 30.25 in 4.0 mi Calm Calm - N/A   Overcast
1:09 AM 35.6 °F - 35.6 °F 100% 30.21 in 3.0 mi Calm Calm - N/A   Overcast
1:28 AM 35.6 °F - 35.6 °F 100% 30.22 in 2.5 mi Calm Calm - N/A   Overcast
1:45 AM 35.6 °F - 35.6 °F 100% 30.22 in 1.5 mi Calm Calm - N/A   Overcast
1:52 AM 35.1 °F - 35.1 °F 100% 30.26 in 1.5 mi Calm Calm - N/A   Overcast
2:02 AM 35.6 °F - 35.6 °F 100% 30.22 in 2.0 mi Calm Calm - N/A   Overcast
2:11 AM 35.6 °F - 35.6 °F 100% 30.22 in 3.0 mi Calm Calm - N/A   Overcast
2:36 AM 35.6 °F - 35.6 °F 100% 30.22 in 3.0 mi Calm Calm - N/A   Overcast
2:41 AM 35.6 °F - 35.6 °F 100% 30.22 in 2.5 mi Calm Calm - N/A   Overcast
2:46 AM 35.6 °F - 35.6 °F 100% 30.22 in 3.0 mi Calm Calm - N/A   Overcast
2:52 AM 35.1 °F - 35.1 °F 100% 30.25 in 2.0 mi Calm Calm - N/A   Overcast
3:32 AM 35.6 °F - 35.6 °F 100% 30.23 in 3.0 mi Calm Calm - N/A   Overcast
3:49 AM 33.8 °F - 33.8 °F 100% 30.23 in 2.5 mi Calm Calm - N/A   Overcast
3:52 AM 34.0 °F - 34.0 °F 100% 30.27 in 1.8 mi Calm Calm - N/A   Overcast
4:24 AM 35.6 °F - 35.6 °F 100% 30.24 in 1.5 mi Calm Calm - N/A   Overcast
4:52 AM 34.0 °F - 34.0 °F 100% 30.29 in 1.2 mi Calm Calm - N/A   Overcast
5:04 AM 35.6 °F - 35.6 °F 100% 30.25 in 3.0 mi Calm Calm - N/A   Overcast
5:13 AM 33.8 °F - 33.8 °F 100% 30.25 in 1.8 mi Calm Calm - N/A   Overcast
5:20 AM 33.8 °F - 33.8 °F 100% 30.26 in 0.8 mi Calm Calm - N/A   Overcast
5:28 AM 33.8 °F - 33.8 °F 100% 30.26 in 1.2 mi Calm Calm - N/A   Overcast
5:43 AM 33.8 °F - 33.8 °F 100% 30.27 in 1.5 mi Calm Calm - N/A   Overcast
5:52 AM 34.0 °F - 34.0 °F 100% 30.31 in 2.0 mi Calm Calm - N/A   Overcast
6:22 AM 33.8 °F - 33.8 °F 100% 30.28 in 3.0 mi Calm Calm - N/A   Overcast
6:27 AM 33.8 °F - 33.8 °F 100% 30.28 in 1.8 mi Calm Calm - N/A   Overcast
6:33 AM 33.8 °F - 33.8 °F 100% 30.28 in 1.0 mi Calm Calm - N/A   Overcast
6:49 AM 33.8 °F - 33.8 °F 100% 30.29 in 1.2 mi Calm Calm - N/A   Overcast
6:52 AM 34.0 °F - 34.0 °F 100% 30.33 in 1.2 mi Calm Calm - N/A   Overcast
7:16 AM 33.8 °F - 33.8 °F 100% 30.30 in 0.8 mi Calm Calm - N/A   Overcast
7:27 AM 33.8 °F - 33.8 °F 100% 30.30 in 1.2 mi Calm Calm - N/A   Overcast
7:39 AM 33.8 °F - 33.8 °F 100% 30.30 in 3.0 mi Calm Calm - N/A   Overcast
7:52 AM 34.0 °F - 34.0 °F 100% 30.35 in 4.0 mi Calm Calm - N/A   Overcast
8:52 AM 36.0 °F 31.1 °F 35.1 °F 97% 30.37 in 10.0 mi North 5.8 mph - N/A   Overcast
9:52 AM 37.0 °F 34.5 °F 35.1 °F 93% 30.38 in 10.0 mi NW 3.5 mph - N/A   Overcast
10:52 AM 37.9 °F - 35.1 °F 89% 30.38 in 10.0 mi Calm Calm - N/A   Overcast
11:32 AM 39.2 °F - 35.6 °F 87% 30.34 in 10.0 mi Calm Calm - N/A   Overcast
11:45 AM 41.0 °F 39.0 °F 37.4 °F 87% 30.33 in 10.0 mi South 3.5 mph - N/A   Overcast
11:52 AM 42.1 °F - 36.0 °F 79% 30.36 in 10.0 mi Calm Calm - N/A   Overcast
12:34 PM 44.6 °F 41.4 °F 37.4 °F 76% 30.32 in 10.0 mi West 5.8 mph - N/A   Scattered Clouds
12:52 PM 44.1 °F 40.8 °F 37.9 °F 79% 30.35 in 10.0 mi Variable 5.8 mph - N/A   Scattered Clouds
1:52 PM 48.0 °F - 37.9 °F 68% 30.33 in 10.0 mi Variable 3.5 mph - N/A   Clear
2:52 PM 51.1 °F - 37.9 °F 61% 30.31 in 10.0 mi Calm Calm - N/A   Clear
3:52 PM 54.0 °F - 39.9 °F 59% 30.30 in 10.0 mi NW 4.6 mph - N/A   Clear
4:52 PM 54.0 °F - 39.9 °F 59% 30.29 in 10.0 mi WNW 5.8 mph - N/A   Clear
5:52 PM 52.0 °F - 39.9 °F 63% 30.30 in 10.0 mi Calm Calm - N/A   Clear
6:52 PM 45.0 °F - 39.9 °F 82% 30.30 in 10.0 mi Calm Calm - N/A   Clear
7:52 PM 37.9 °F - 36.0 °F 93% 30.31 in 10.0 mi Calm Calm - N/A   Clear
8:52 PM 35.1 °F - 33.1 °F 92% 30.32 in 10.0 mi Calm Calm - N/A   Clear
9:52 PM 33.1 °F - 32.0 °F 96% 30.33 in 10.0 mi Calm Calm - N/A   Clear
10:52 PM 32.0 °F - 30.0 °F 92% 30.31 in 10.0 mi Calm Calm - N/A   Partly Cloudy
11:52 PM 30.9 °F - 28.9 °F 92% 30.30 in 10.0 mi Calm Calm - N/A   Clear